This is the latest recevied weather packets stored in our database for station/object KC3ULW-13. If no packets are shown the sender has not sent any weather packets the latest 10 day(s).
| Time | Temp. | Humidity | Pressure | Rain* | Wind** | Luminosity | Snow |
|---|---|---|---|---|---|---|---|
| 1777670519 | 9.44° C | 83% | 1013.8 hPa | 0 mm | - | 90 W/m² | - |
| 1777670215 | 9.44° C | 84% | 1014 hPa | 0 mm | - | 125 W/m² | - |
| 1777669913 | 9.44° C | 85% | 1014.1 hPa | 0 mm | - | 100 W/m² | - |
| 1777669610 | 9.44° C | 85% | 1014 hPa | 0 mm | - | 117 W/m² | - |
| 1777669307 | 9.44° C | 85% | 1014 hPa | 0 mm | - | 95 W/m² | - |
| 1777669002 | 8.89° C | 85% | 1014.1 hPa | 1.27 mm | - | 88 W/m² | - |
| 1777668700 | 8.89° C | 85% | 1014.2 hPa | 0 mm | - | 76 W/m² | - |
| 1777668397 | 8.89° C | 84% | 1014.1 hPa | 0 mm | - | 58 W/m² | - |
| 1777668092 | 8.89° C | 84% | 1014.2 hPa | 1.78 mm | - | 35 W/m² | - |
| 1777667790 | 9.44° C | 83% | 1014.1 hPa | 1.78 mm | - | 54 W/m² | - |
| 1777667487 | 8.89° C | 83% | 1014.1 hPa | 0 mm | - | 40 W/m² | - |
| 1777667184 | 9.44° C | 83% | 1014.3 hPa | 0 mm | - | 34 W/m² | - |
| 1777666881 | 9.44° C | 83% | 1014.1 hPa | 0 mm | - | 35 W/m² | - |
| 1777666578 | 9.44° C | 83% | 1013.9 hPa | 0 mm | - | 54 W/m² | - |
| 1777666274 | 9.44° C | 82% | 1014 hPa | 1.27 mm | - | 76 W/m² | - |
| 1777665971 | 9.44° C | 81% | 1014 hPa | 3.05 mm | - | 104 W/m² | - |
| 1777665669 | 10° C | 80% | 1014.1 hPa | 1.78 mm | - | 84 W/m² | - |
| 1777665366 | 10° C | 78% | 1014.1 hPa | 0 mm | - | 110 W/m² | - |
| 1777665061 | 10° C | 77% | 1014 hPa | 0 mm | - | 97 W/m² | - |
| 1777664757 | 10° C | 76% | 1014.2 hPa | 0 mm | - | 67 W/m² | - |
| 1777664453 | 10° C | 77% | 1014.1 hPa | 0 mm | - | 84 W/m² | - |
| 1777664150 | 10° C | 77% | 1013.9 hPa | 0 mm | - | 121 W/m² | - |
| 1777663849 | 10.56° C | 77% | 1014.2 hPa | 0 mm | - | 121 W/m² | - |
| 1777663545 | 10° C | 77% | 1013.8 hPa | 0 mm | - | 171 W/m² | - |
| 1777663243 | 10.56° C | 75% | 1014.1 hPa | 0 mm | - | 228 W/m² | - |
* Rain latest hour (hover to see other rain measurements)
** Current wind speed in m/s (hover to see current wind gust speed)